Home   Weather   Brussels   Past weeks

Flag for Belgium Past Weather in Brussels, Belgium — Yesterday and Last 2 Weeks

Now
46 °F

Passing clouds.


Feels Like: 41 °F
Forecast: 40 / 47 °F
Wind: 12 mph from Southwest

Location: Brussels National Airport

Current Time: Dec 9, 2016 at 1:01:57 am

Latest Report: Dec 9, 2016 at 12:20 am


Visibility: N/A

Pressure: 30.39 "Hg

Humidity: 76%

Dew Point: 39 °F

Location of BrusselsLocation

Past Weather in Brussels — Graph

°F

Brussels Temperature Yesterday

Maximum temperature yesterday: 48 °F (at 1:20 pm)
Minimum temperature yesterday: 43 °F (at 3:50 am)
Average temperature yesterday: 45 °F

High & Low Weather Summary for the Past Weeks

 TemperatureHumidityPressure
High52 °F (Nov 24, 1:50 pm)100% (Nov 23, 11:20 pm)30.57 "Hg (Nov 23, 11:20 pm)
Low25 °F (Nov 29, 5:20 am)52% (Nov 30, 12:50 pm)30.07 "Hg (Nov 23, 11:20 pm)
Average38 °F84%30.30 "Hg
* Reported Nov 23 11:20 pm — Dec 8 11:20 pm, Brussels, Weather by CustomWeather, © 2016

Note: Actual official high and low records may vary slightly from our data, if they occured in-between our weather recording intervals... More about our weather records

Advertising

Brussels Weather History for the Previous 24 Hours

Scroll right to see more
 ConditionsComfort  
Time TempWeatherWind HumidityBarometerVisibility
11:20 pm
Thu, Dec 8
46 °FPassing clouds.10 mph76%30.39 "HgN/A
10:50 pm46 °FPassing clouds.10 mph82%30.39 "HgN/A
10:20 pm46 °FPassing clouds.10 mph82%30.36 "HgN/A
9:50 pm46 °FPartly cloudy.10 mph82%30.39 "Hg4 mi
9:20 pm48 °FPassing clouds.15 mph71%30.36 "HgN/A
8:50 pm46 °FPassing clouds.14 mph71%30.36 "HgN/A
8:20 pm48 °FPassing clouds.15 mph66%30.36 "HgN/A
7:50 pm46 °FPassing clouds.15 mph71%30.36 "HgN/A
7:20 pm46 °FPassing clouds.14 mph71%30.33 "HgN/A
6:50 pm46 °FClear.16 mph71%30.33 "Hg10 mi
6:20 pm46 °FPassing clouds.15 mph71%30.33 "HgN/A
5:50 pm46 °FPassing clouds.15 mph71%30.33 "HgN/A
5:20 pm46 °FPassing clouds.16 mph71%30.33 "HgN/A
4:50 pm45 °FPassing clouds.15 mph76%30.33 "HgN/A
4:20 pm46 °FSunny.13 mph71%30.33 "Hg10 mi
3:50 pm48 °FSunny.14 mph66%30.33 "Hg10 mi
3:20 pm48 °FSunny.10 mph66%30.33 "Hg10 mi
2:50 pm48 °FSunny.9 mph66%30.36 "Hg10 mi
2:20 pm48 °FSunny.12 mph66%30.36 "Hg10 mi
1:50 pm48 °FPassing clouds.5 mph66%30.36 "HgN/A
1:20 pm48 °FPassing clouds.7 mph62%30.36 "HgN/A
12:50 pm46 °FSunny.7 mph71%30.36 "Hg10 mi
12:20 pm46 °FSunny.7 mph66%30.39 "Hg10 mi
11:50 am45 °FSunny.12 mph71%30.36 "Hg10 mi
11:20 am43 °FSunny.9 mph76%30.39 "Hg10 mi
10:50 am43 °FSunny.14 mph76%30.39 "Hg10 mi
10:20 am43 °FSunny.14 mph71%30.42 "Hg10 mi
9:50 am43 °FSunny.14 mph71%30.39 "Hg10 mi
9:20 am43 °FSunny.12 mph71%30.39 "Hg10 mi
8:50 am43 °FSunny.9 mph71%30.42 "Hg10 mi
8:20 am43 °FClear.12 mph66%30.42 "Hg10 mi
7:50 am43 °FClear.9 mph71%30.42 "Hg10 mi
7:20 am43 °FClear.9 mph66%30.42 "Hg10 mi
6:50 am43 °FClear.9 mph66%30.39 "Hg10 mi
6:20 am45 °FPassing clouds.8 mph61%30.39 "HgN/A
5:50 am45 °FPassing clouds.5 mph61%30.39 "HgN/A
5:20 am45 °FClear.12 mph66%30.39 "Hg10 mi
4:50 am43 °FClear.8 mph71%30.39 "Hg10 mi
4:20 am43 °FClear.9 mph71%30.39 "Hg10 mi
3:50 am43 °FClear.7 mph71%30.42 "Hg10 mi
3:20 am45 °FClear.8 mph66%30.42 "Hg10 mi
2:20 am45 °FClear.13 mph66%30.42 "Hg10 mi
1:50 am45 °FClear.10 mph66%30.42 "Hg10 mi
1:20 am45 °FClear.12 mph66%30.42 "Hg10 mi
Weather by CustomWeather, © 2016

See weather overviewHow to use our weather pages